Altus, OK

5:28 PM CDT on September 21, 2017 (GMT -0500)
Altus Municipal

Weather History for KAXS - July, 2012

Change the Weather History Date:

Friday, July 6, 2012

  Actual Average (KLTS) Record (KLTS)
Temperature  
Mean Temperature 86 °F -  
Max Temperature 100 °F 93 °F 107 °F (1996)
Min Temperature 73 °F 70 °F 67 °F (2007)
Cooling Degree Days 22    
Growing Degree Days 36 (Base 50)    
Moisture  
Dew Point 56 °F    
Average Humidity 35    
Maximum Humidity 61    
Minimum Humidity 20    
Precipitation  
Precipitation 0.00 in - - ()
Sea Level Pressure  
Sea Level Pressure 30.01 in    
Wind  
Wind Speed 8 mph (SSE)    
Max Wind Speed 14 mph    
Max Gust Speed 24 mph    
Visibility 10 miles    
Events      
Averages and records for this station are not official NWS values.
T = Trace of Precipitation, MM = Missing Value Source: NWS Daily Summary

Daily Weather History Graph

Daily Weather History Graph

Search for Another Location

Airport or City:

Trip Planner

Search our weather history database for the weather conditions in past years. The results will help you decide how hot, cold, wet, or windy it might be!

Date:

Astronomy

Jul. 06, 2012 Rise Set
Actual Time 6:30 AM CDT 8:53 PM CDT
Civil Twilight 6:01 AM CDT 9:22 PM CDT
Nautical Twilight 5:25 AM CDT 9:58 PM CDT
Astronomical Twilight 4:45 AM CDT 10:38 PM CDT
Moon 10:55 PM CDT (7/6) 9:42 AM CDT (7/6)
Length of Visible Light 15h 21m
Length of Day
14h 23m
Waning Gibbous, 89% of the Moon is Illuminated
Jul 6
Waning Gibbous
Jul 10
Last Quarter
Jul 18
New
Jul 26
First Quarter
Aug 1
Full

Hourly Weather History & Observations

Time (CDT) Temp. Heat Index Dew Point Humidity Pressure Visibility Wind Dir Wind Speed Gust Speed Precip Events Conditions
12:15 AM 86.0 °F 84.5 °F 55.4 °F 35% 29.99 in 10.0 mi SSE 11.5 mph - N/A   Clear
12:35 AM 86.0 °F 84.5 °F 55.4 °F 35% 29.99 in 10.0 mi SSE 9.2 mph - N/A   Clear
1:15 AM 82.4 °F 82.0 °F 57.2 °F 42% 30.00 in 10.0 mi SSE 9.2 mph - N/A   Clear
1:35 AM 82.4 °F 82.0 °F 57.2 °F 42% 30.00 in 10.0 mi SSE 8.1 mph - N/A   Clear
1:55 AM 82.4 °F 82.0 °F 57.2 °F 42% 30.00 in 10.0 mi SE 6.9 mph - N/A   Clear
2:15 AM 80.6 °F 80.8 °F 57.2 °F 45% 30.01 in 10.0 mi SE 5.8 mph - N/A   Clear
2:35 AM 80.6 °F 80.8 °F 57.2 °F 45% 30.01 in 10.0 mi SE 6.9 mph - N/A   Clear
2:55 AM 78.8 °F - 57.2 °F 47% 30.01 in 10.0 mi SE 6.9 mph - N/A   Clear
3:15 AM 78.8 °F - 57.2 °F 47% 30.01 in 10.0 mi SE 6.9 mph - N/A   Clear
3:35 AM 78.8 °F - 57.2 °F 47% 30.01 in 10.0 mi SE 6.9 mph - N/A   Clear
3:55 AM 77.0 °F - 59.0 °F 54% 30.01 in 10.0 mi ESE 5.8 mph - N/A   Clear
4:15 AM 77.0 °F - 59.0 °F 54% 30.01 in 10.0 mi ESE 4.6 mph - N/A   Clear
4:35 AM 77.0 °F - 59.0 °F 54% 30.01 in 10.0 mi ESE 5.8 mph - N/A   Clear
4:55 AM 77.0 °F - 59.0 °F 54% 30.01 in 10.0 mi ESE 5.8 mph - N/A   Clear
5:15 AM 73.4 °F - 59.0 °F 61% 30.02 in 10.0 mi ESE 5.8 mph - N/A   Clear
5:35 AM 75.2 °F - 59.0 °F 57% 30.03 in 10.0 mi ESE 4.6 mph - N/A   Clear
5:55 AM 73.4 °F - 59.0 °F 61% 30.03 in 10.0 mi ESE 5.8 mph - N/A   Clear
6:15 AM 73.4 °F - 59.0 °F 61% 30.03 in 10.0 mi SE 4.6 mph - N/A   Clear
6:35 AM 73.4 °F - 59.0 °F 61% 30.03 in 10.0 mi ESE 5.8 mph - N/A   Clear
6:55 AM 73.4 °F - 59.0 °F 61% 30.04 in 10.0 mi ESE 6.9 mph - N/A   Clear
7:15 AM 73.4 °F - 59.0 °F 61% 30.04 in 10.0 mi ESE 4.6 mph - N/A   Clear
7:35 AM 75.2 °F - 59.0 °F 57% 30.04 in 10.0 mi SE 4.6 mph - N/A   Clear
7:55 AM 77.0 °F - 60.8 °F 57% 30.05 in 10.0 mi SE 4.6 mph - N/A   Clear
8:15 AM 78.8 °F - 59.0 °F 51% 30.06 in 10.0 mi SSE 3.5 mph - N/A   Clear
8:35 AM 80.6 °F 81.5 °F 60.8 °F 51% 30.06 in 10.0 mi Calm Calm - N/A   Clear
8:55 AM 82.4 °F 82.5 °F 59.0 °F 45% 30.06 in 10.0 mi South 4.6 mph - N/A   Clear
9:15 AM 86.0 °F 86.1 °F 60.8 °F 43% 30.06 in 10.0 mi South 5.8 mph - N/A   Clear
9:35 AM 86.0 °F 86.1 °F 60.8 °F 43% 30.06 in 10.0 mi South 5.8 mph - N/A   Clear
10:15 AM 89.6 °F 87.7 °F 55.4 °F 31% 30.06 in 10.0 mi South 6.9 mph - N/A   Clear
10:35 AM 91.4 °F 89.4 °F 55.4 °F 29% 30.06 in 10.0 mi South 9.2 mph - N/A   Clear
10:55 AM 91.4 °F 89.4 °F 55.4 °F 29% 30.06 in 10.0 mi SW 9.2 mph - N/A   Clear
11:15 AM 91.4 °F 89.4 °F 55.4 °F 29% 30.06 in 10.0 mi SSW 8.1 mph - N/A   Clear
11:35 AM 93.2 °F 91.3 °F 55.4 °F 28% 30.06 in 10.0 mi SW 9.2 mph - N/A   Clear
11:55 AM 95.0 °F 93.0 °F 55.4 °F 26% 30.06 in 10.0 mi SSW 9.2 mph - N/A   Clear
12:15 PM 95.0 °F 93.0 °F 55.4 °F 26% 30.06 in 10.0 mi South 8.1 mph - N/A   Clear
12:35 PM 96.8 °F 95.1 °F 55.4 °F 25% 30.06 in 10.0 mi SW 11.5 mph 16.1 mph N/A   Clear
12:55 PM 96.8 °F 95.1 °F 55.4 °F 25% 30.05 in 10.0 mi SSW 5.8 mph - N/A   Clear
1:15 PM 96.8 °F 95.1 °F 55.4 °F 25% 30.05 in 10.0 mi South 11.5 mph 19.6 mph N/A   Clear
1:35 PM 96.8 °F 95.1 °F 55.4 °F 25% 30.05 in 10.0 mi South 6.9 mph - N/A   Clear
2:15 PM 98.6 °F 96.4 °F 53.6 °F 22% 30.03 in 10.0 mi SSE 11.5 mph 17.3 mph N/A   Clear
2:35 PM 98.6 °F 96.4 °F 53.6 °F 22% 30.02 in 10.0 mi SSW 9.2 mph - N/A   Clear
2:55 PM 98.6 °F 96.4 °F 53.6 °F 22% 30.02 in 10.0 mi SSW 9.2 mph 17.3 mph N/A   Clear
3:15 PM 98.6 °F 96.4 °F 53.6 °F 22% 30.01 in 10.0 mi South 12.7 mph 17.3 mph N/A   Clear
3:35 PM 98.6 °F 96.4 °F 53.6 °F 22% 30.00 in 10.0 mi ESE 6.9 mph - N/A   Clear
3:55 PM 98.6 °F 96.4 °F 53.6 °F 22% 30.00 in 10.0 mi South 9.2 mph 17.3 mph N/A   Clear
4:15 PM 100.4 °F 98.4 °F 53.6 °F 21% 29.99 in 10.0 mi SSE 13.8 mph 20.7 mph N/A   Clear
4:35 PM 98.6 °F 96.4 °F 53.6 °F 22% 29.99 in 10.0 mi SSE 8.1 mph 19.6 mph N/A   Clear
4:55 PM 100.4 °F 98.4 °F 53.6 °F 21% 29.98 in 10.0 mi SSE 12.7 mph 24.2 mph N/A   Clear
5:15 PM 100.4 °F - 51.8 °F 20% 29.97 in 10.0 mi SE 6.9 mph - N/A   Clear
5:35 PM 100.4 °F - 51.8 °F 20% 29.97 in 10.0 mi SE 10.4 mph 18.4 mph N/A   Clear
6:15 PM 100.4 °F - 51.8 °F 20% 29.96 in 10.0 mi SSE 5.8 mph - N/A   Clear
6:35 PM 100.4 °F 98.4 °F 53.6 °F 21% 29.95 in 10.0 mi SE 8.1 mph 16.1 mph N/A   Clear
7:15 PM 100.4 °F - 51.8 °F 20% 29.94 in 10.0 mi SE 9.2 mph - N/A   Clear
7:35 PM 98.6 °F - 51.8 °F 21% 29.94 in 10.0 mi SE 10.4 mph - N/A   Clear
7:55 PM 98.6 °F - 51.8 °F 21% 29.95 in 10.0 mi SSE 10.4 mph - N/A   Clear
8:15 PM 96.8 °F - 51.8 °F 22% 29.95 in 10.0 mi SE 8.1 mph - N/A   Clear
8:35 PM 95.0 °F - 51.8 °F 23% 29.96 in 10.0 mi SE 6.9 mph - N/A   Clear
8:55 PM 95.0 °F - 51.8 °F 23% 29.96 in 10.0 mi SE 6.9 mph - N/A   Clear
9:15 PM 91.4 °F - 51.8 °F 26% 29.97 in 10.0 mi SSE 6.9 mph - N/A   Clear
9:35 PM 89.6 °F - 51.8 °F 27% 29.98 in 10.0 mi SE 6.9 mph - N/A   Clear
9:55 PM 89.6 °F - 51.8 °F 27% 29.99 in 10.0 mi SE 8.1 mph - N/A   Clear
10:15 PM 89.6 °F 87.3 °F 53.6 °F 29% 29.99 in 10.0 mi SE 11.5 mph - N/A   Clear
10:35 PM 89.6 °F 87.3 °F 53.6 °F 29% 30.00 in 10.0 mi SSE 10.4 mph - N/A   Clear
10:55 PM 89.6 °F 87.3 °F 53.6 °F 29% 30.02 in 10.0 mi SSE 10.4 mph - N/A   Clear
11:15 PM 87.8 °F 85.7 °F 53.6 °F 31% 30.03 in 10.0 mi SSE 10.4 mph - N/A   Clear
11:35 PM 87.8 °F 85.7 °F 53.6 °F 31% 30.04 in 10.0 mi SSE 10.4 mph - N/A   Clear
11:55 PM 87.8 °F 85.7 °F 53.6 °F 31% 30.04 in 10.0 mi SE 10.4 mph - N/A   Clear